リニア-グラウアー彗星

P/2010 TO20 ( LINEAR-Grauer )

English version
Home page
Updated on January 28, 2017

---------------------------------------------------------------------

・ プロフィール

発見日 2010年10月1日、2011年10月19日
発見光度 19.4等、19.1等
発見者 Lincoln Laboratory Near-Earth Asteroid Research project, A. D. Grauer (Mount Lemmon)

・ 写真集

・ 軌道要素

Epoch 2012 Sept. 30.0 TT = JDT 2456200.5
T 2009 Jan. 2.55230 TT                                  MPC
q   5.2866202            (2000.0)            P               Q
n   0.07247039     Peri.  264.18927     +0.61903257     +0.78476182
a   5.6976485      Node    44.10570     -0.70192396     +0.57041939
e   0.0721400      Incl.    2.53495     -0.35228033     +0.24242650
P  13.6
From 55 observations 2010 Oct. 1-2012 Nov. 17, mean residual 0".7.

・ 光度変化

        m1 = -20 + 5 logΔ + 50 log r(t - 800)

---------------------------------------------------------------------

軌道要素はM.P.E.C. 2012-W54に掲載されたものです。
光度グラフはComet for Windowsで作成したものです。

---------------------------------------------------------------------

Copyright(C) Seiichi Yoshida (comet@aerith.net). All rights reserved.